• In Belarus
  • List of Countries
  • For 7 days
  • Water Temperature
  • Satellite Maps
  • Weather Map
  • Weather Widgets
  • user-avatar
    Login

    Hourly Weather Solden

    Today, 21 July, Sunday

    Time Temperature Precipitation Wind Pressure Humidity
    00:00 +8°C° 0.2 mm 1 mps 587 mmHg 91%
    01:00 +7°C° 0.2 mm 0 mps 588 mmHg 91%
    02:00 +7°C° 0.1 mm 0 mps 587 mmHg 91%
    03:00 +7°C° 0.1 mm 0 mps 587 mmHg 91%
    04:00 +7°C° 0.1 mm 0 mps 587 mmHg 91%
    05:00 +8°C° 0 mm 0 mps 587 mmHg 89%
    06:00 +9°C° 0 mm 0 mps 588 mmHg 87%
    07:00 +10°C° 0 mm 0 mps 589 mmHg 85%
    08:00 +12°C° 0.3 mm 0 mps 590 mmHg 80%
    09:00 +15°C° 0.3 mm 1 mps 591 mmHg 75%
    10:00 +16°C° 0.3 mm 1 mps 592 mmHg 69%
    11:00 +18°C° 0.8 mm 1 mps 592 mmHg 69%
    12:00 +18°C° 0.8 mm 1 mps 592 mmHg 68%
    13:00 +17°C° 0.8 mm 0 mps 592 mmHg 67%
    14:00 +19°C° 0.8 mm 1 mps 592 mmHg 68%
    15:00 +18°C° 0.8 mm 1 mps 592 mmHg 69%
    16:00 +18°C° 0.8 mm 1 mps 592 mmHg 69%
    17:00 +16°C° 0.4 mm 1 mps 592 mmHg 75%
    18:00 +15°C° 0.4 mm 1 mps 591 mmHg 80%
    19:00 +14°C° 0.4 mm 1 mps 591 mmHg 86%
    20:00 +12°C° 0.1 mm 1 mps 590 mmHg 87%
    21:00 +11°C° 0.1 mm 1 mps 590 mmHg 88%
    22:00 +8°C° 0.1 mm 2 mps 590 mmHg 90%
    23:00 +9°C° 0 mm 1 mps 590 mmHg 89%

    Tomorrow, 22 July, Monday

    Time Temperature Precipitation Wind Pressure Humidity
    00:00 +8°C° 0 mm 1 mps 589 mmHg 88%
    01:00 +8°C° 0 mm 1 mps 589 mmHg 87%
    02:00 +8°C° 0 mm 1 mps 589 mmHg 86%
    03:00 +7°C° 0 mm 1 mps 589 mmHg 85%
    04:00 +7°C° 0 mm 1 mps 589 mmHg 84%
    05:00 +9°C° 0 mm 1 mps 589 mmHg 81%
    06:00 +10°C° 0 mm 1 mps 590 mmHg 77%
    07:00 +12°C° 0 mm 1 mps 591 mmHg 74%
    08:00 +14°C° 0 mm 1 mps 592 mmHg 65%
    09:00 +16°C° 0 mm 1 mps 593 mmHg 56%
    10:00 +19°C° 0 mm 1 mps 594 mmHg 48%
    11:00 +20°C° 0 mm 1 mps 594 mmHg 44%
    12:00 +21°C° 0 mm 1 mps 595 mmHg 41%
    13:00 +22°C° 0 mm 1 mps 595 mmHg 37%
    14:00 +22°C° 0 mm 1 mps 595 mmHg 38%
    15:00 +22°C° 0 mm 1 mps 595 mmHg 39%
    16:00 +21°C° 0 mm 1 mps 594 mmHg 40%
    17:00 +20°C° 0 mm 1 mps 594 mmHg 52%
    18:00 +18°C° 0 mm 1 mps 593 mmHg 64%
    19:00 +14°C° 0 mm 0 mps 592 mmHg 76%
    20:00 +14°C° 0 mm 1 mps 592 mmHg 80%
    21:00 +12°C° 0 mm 1 mps 591 mmHg 83%
    22:00 +11°C° 0 mm 1 mps 591 mmHg 87%
    23:00 +11°C° 0 mm 1 mps 590 mmHg 87%

    Day after tomorrow, 23 July, Tuesday

    Time Temperature Precipitation Wind Pressure Humidity
    00:00 +10°C° 0 mm 1 mps 590 mmHg 87%
    01:00 +10°C° 0 mm 1 mps 590 mmHg 87%
    02:00 +9°C° 0 mm 1 mps 589 mmHg 87%
    03:00 +9°C° 0 mm 1 mps 589 mmHg 87%
    04:00 +9°C° 0 mm 1 mps 589 mmHg 86%
    05:00 +10°C° 0 mm 0 mps 590 mmHg 81%
    06:00 +11°C° 0 mm 0 mps 590 mmHg 75%
    07:00 +13°C° 0 mm 0 mps 591 mmHg 69%
    08:00 +15°C° 0 mm 0 mps 592 mmHg 63%
    09:00 +19°C° 0 mm 1 mps 593 mmHg 57%
    10:00 +20°C° 0 mm 1 mps 594 mmHg 51%
    11:00 +21°C° 0 mm 1 mps 594 mmHg 49%
    12:00 +22°C° 0 mm 1 mps 594 mmHg 47%
    13:00 +23°C° 0 mm 2 mps 594 mmHg 45%
    14:00 +21°C° 0.3 mm 2 mps 593 mmHg 49%
    15:00 +21°C° 0.3 mm 2 mps 593 mmHg 52%
    16:00 +21°C° 0.3 mm 2 mps 593 mmHg 56%
    17:00 +19°C° 0.7 mm 2 mps 592 mmHg 66%
    18:00 +18°C° 0.7 mm 1 mps 591 mmHg 76%
    19:00 +16°C° 0.7 mm 1 mps 591 mmHg 86%
    20:00 +15°C° 0.2 mm 1 mps 590 mmHg 89%
    21:00 +12°C° 0.2 mm 0 mps 590 mmHg 92%
    22:00 +11°C° 0.2 mm 0 mps 589 mmHg 94%
    23:00 +10°C° 0 mm 0 mps 589 mmHg 95%

    24 July, Wednesday

    Time Temperature Precipitation Wind Pressure Humidity
    00:00 +10°C° 0 mm 0 mps 589 mmHg 95%
    01:00 +10°C° 0 mm 0 mps 588 mmHg 95%
    02:00 +9°C° 0 mm 0 mps 588 mmHg 95%
    03:00 +9°C° 0 mm 0 mps 588 mmHg 95%
    04:00 +9°C° 0 mm 0 mps 588 mmHg 95%
    05:00 +10°C° 0 mm 0 mps 588 mmHg 92%
    06:00 +12°C° 0 mm 0 mps 589 mmHg 89%
    07:00 +13°C° 0 mm 0 mps 590 mmHg 86%
    08:00 +15°C° 0.1 mm 0 mps 590 mmHg 80%
    09:00 +18°C° 0.1 mm 1 mps 591 mmHg 74%
    10:00 +20°C° 0.1 mm 1 mps 592 mmHg 68%
    11:00 +20°C° 1 mm 1 mps 592 mmHg 68%
    12:00 +21°C° 1 mm 1 mps 592 mmHg 67%
    13:00 +21°C° 1 mm 1 mps 592 mmHg 66%
    14:00 +21°C° 1.7 mm 1 mps 592 mmHg 67%
    15:00 +21°C° 1.7 mm 1 mps 592 mmHg 68%
    16:00 +21°C° 1.7 mm 1 mps 591 mmHg 70%
    17:00 +20°C° 1.1 mm 1 mps 591 mmHg 74%
    18:00 +18°C° 1.1 mm 1 mps 590 mmHg 79%
    19:00 +16°C° 1.1 mm 1 mps 590 mmHg 84%
    20:00 +15°C° 0.4 mm 1 mps 590 mmHg 85%
    21:00 +14°C° 0.4 mm 1 mps 589 mmHg 86%
    22:00 +13°C° 0.4 mm 1 mps 589 mmHg 87%
    23:00 +12°C° 0.3 mm 1 mps 589 mmHg 87%

    25 July, Thursday

    Time Temperature Precipitation Wind Pressure Humidity
    00:00 +11°C° 0.3 mm 0 mps 588 mmHg 87%
    01:00 +11°C° 0.3 mm 0 mps 588 mmHg 87%
    02:00 +10°C° 0.1 mm 0 mps 588 mmHg 88%
    03:00 +10°C° 0.1 mm 0 mps 588 mmHg 88%
    04:00 +10°C° 0.1 mm 0 mps 587 mmHg 88%
    05:00 +11°C° 0 mm 0 mps 588 mmHg 85%
    06:00 +12°C° 0 mm 0 mps 589 mmHg 83%
    07:00 +14°C° 0 mm 0 mps 590 mmHg 80%
    08:00 +15°C° 0.3 mm 0 mps 590 mmHg 75%
    09:00 +19°C° 0.3 mm 1 mps 591 mmHg 69%
    10:00 +20°C° 0.3 mm 1 mps 592 mmHg 64%
    11:00 +21°C° 1.2 mm 1 mps 591 mmHg 63%
    12:00 +21°C° 1.2 mm 2 mps 591 mmHg 62%
    13:00 +21°C° 1.2 mm 2 mps 591 mmHg 61%
    14:00 +21°C° 1.8 mm 2 mps 591 mmHg 64%
    15:00 +20°C° 1.8 mm 2 mps 591 mmHg 68%
    16:00 +20°C° 1.8 mm 2 mps 590 mmHg 71%
    17:00 +19°C° 1.9 mm 1 mps 590 mmHg 77%
    18:00 +18°C° 1.9 mm 1 mps 589 mmHg 82%
    19:00 +16°C° 1.9 mm 1 mps 589 mmHg 87%
    20:00 +15°C° 0.9 mm 1 mps 588 mmHg 89%
    21:00 +14°C° 0.9 mm 1 mps 588 mmHg 91%
    22:00 +12°C° 0.9 mm 1 mps 587 mmHg 93%
    23:00 +11°C° 0 mm 0 mps 587 mmHg 94%

    26 July, Friday

    Time Temperature Precipitation Wind Pressure Humidity
    00:00 +10°C° 0 mm 0 mps 587 mmHg 94%
    01:00 +10°C° 0 mm 0 mps 586 mmHg 94%
    02:00 +10°C° 0 mm 0 mps 586 mmHg 94%
    03:00 +9°C° 0 mm 0 mps 586 mmHg 94%
    04:00 +9°C° 0 mm 0 mps 586 mmHg 94%
    05:00 +10°C° 0 mm 0 mps 586 mmHg 92%
    06:00 +12°C° 0 mm 0 mps 587 mmHg 90%
    07:00 +13°C° 0 mm 0 mps 587 mmHg 88%
    08:00 +14°C° 0.3 mm 0 mps 588 mmHg 82%
    09:00 +18°C° 0.3 mm 1 mps 589 mmHg 75%
    10:00 +20°C° 0.3 mm 1 mps 589 mmHg 69%
    11:00 +20°C° 0.9 mm 1 mps 590 mmHg 67%
    12:00 +21°C° 0.9 mm 1 mps 590 mmHg 66%
    13:00 +20°C° 0.9 mm 2 mps 590 mmHg 64%
    14:00 +21°C° 1.7 mm 1 mps 589 mmHg 67%
    15:00 +20°C° 1.7 mm 1 mps 589 mmHg 69%
    16:00 +20°C° 1.7 mm 1 mps 589 mmHg 72%
    17:00 +19°C° 2.2 mm 1 mps 588 mmHg 78%
    18:00 +16°C° 2.2 mm 1 mps 588 mmHg 83%
    19:00 +14°C° 2.2 mm 0 mps 587 mmHg 89%
    20:00 +14°C° 1.5 mm 1 mps 587 mmHg 89%
    21:00 +12°C° 1.5 mm 1 mps 586 mmHg 90%
    22:00 +11°C° 1.5 mm 1 mps 586 mmHg 90%
    23:00 +11°C° 0.2 mm 1 mps 586 mmHg 90%
    Show more